Flag for Canada Weather past 2 weeks in Regina, Saskatchewan, Canada

Now
46 °F

Clear.


Feels Like: 44 °F
Forecast: 46 / 66 °F
Wind: 6 mph from Northwest

Location: Regina Weather Station

Current Time: Sep 1, 2014 at 6:21:48 AM

Latest Report: Sep 1, 2014 at 5:00 AM


Visibility: 15 mi

Pressure: 29.82 "Hg

Humidity: 100%

Dew point: 46 °F

Location of ReginaLocation

Historic Weather in Regina — Graph

°F

Regina temperature yesterday

Maximum temperature yesterday: 70 °F (at 2:00 PM)
Minimum temperature yesterday: 50 °F (at 6:00 AM)
Average temperature yesterday: 59 °F

Past Weeks' High & Low Weather Summary

 TemperatureHumidityPressure
High86 °F (Aug 19, 3:00 PM)100% (Aug 17, 4:04 AM)30.25 "Hg (Aug 17, 4:04 AM)
Low41 °F (Aug 26, 4:00 AM)39% (Aug 27, 1:00 PM)29.58 "Hg (Aug 20, 4:00 AM)
Average61 °F79%29.91 "Hg
* Reported Aug 17 4:04 AM — Sep 1 4:00 AM, Regina, Weather by CustomWeather, © 2014

Note: Actual official high and low records may vary slightly from our data, if they occured in-between our weather recording intervals... More about our weather records

Advertising

Regina weather history for previous 24 hours

 ConditionsComfort  
Time TempWeatherWind HumidityBarometerVisibility
4:00 AM
Sep 1
46 °FClear.5 mph100%29.79 "Hg15 mi
3:00 AM48 °FClear.6 mph100%29.79 "Hg15 mi
2:00 AM50 °FPassing clouds.7 mph94%29.78 "Hg15 mi
1:00 AM50 °FPassing clouds.7 mph100%29.78 "Hg15 mi
12:00 AM52 °FPassing clouds.8 mph94%29.78 "Hg15 mi
11:00 PM
Aug 31
54 °FPassing clouds.7 mph88%29.77 "Hg15 mi
10:00 PM54 °FMostly cloudy.12 mph94%29.77 "Hg15 mi
9:00 PM55 °FOvercast.5 mphN/AN/A15 mi
8:00 PM57 °FPassing clouds.17 mph72%29.76 "Hg15 mi
7:00 PM64 °FPartly sunny.7 mph60%29.70 "Hg15 mi
6:00 PM68 °FPartly sunny.5 mph53%29.72 "Hg15 mi
5:00 PM70 °FPartly sunny.8 mph46%N/A15 mi
4:00 PM70 °FPartly sunny.5 mph43%29.71 "Hg15 mi
3:00 PM70 °FPassing clouds.15 mph40%29.71 "Hg15 mi
2:00 PM70 °FPassing clouds.12 mph50%29.71 "Hg15 mi
1:00 PM68 °FScattered clouds.8 mph53%29.72 "Hg15 mi
12:00 PM68 °FBroken clouds.7 mph56%29.72 "Hg15 mi
11:00 AM66 °FPassing clouds.7 mph60%29.72 "Hg15 mi
10:00 AM63 °FPassing clouds.7 mph68%29.73 "Hg15 mi
9:00 AM57 °FScattered clouds.5 mph88%29.73 "Hg15 mi
8:00 AM52 °FPassing clouds.5 mph100%29.73 "Hg15 mi
7:00 AM50 °FPassing clouds.6 mphN/AN/A3 mi
6:00 AM50 °FPassing clouds.3 mphN/A29.71 "Hg0 mi
Weather by CustomWeather, © 2014

See weather overviewHow to use our weather pages